Home   Weather   Rabat   Past weeks

Flag for Morocco Past Weather in Rabat, Morocco — Yesterday and Last 2 Weeks

66 °F


Feels Like: 66 °F
Forecast: 65 / 78 °F
Wind: 2 mph from North

Location: Rabat-Sale

Current Time: Oct 25, 2016 at 12:46:26 AM

Latest Report: Oct 25, 2016 at 12:00 AM

Visibility: 5 mi

Pressure: 29.83 "Hg

Humidity: 83%

Dew Point: 61 °F

Location of RabatLocation

Past Weather in Rabat — Graph


Rabat Temperature Yesterday

Maximum temperature yesterday: 81 °F (at 2:00 PM)
Minimum temperature yesterday: 61 °F (at 8:00 AM)
Average temperature yesterday: 69 °F

High & Low Weather Summary for the Past Weeks

High86 °F (Oct 17, 2:00 PM)100% (Oct 15, 4:00 AM)30.18 "Hg (Oct 15, 4:00 AM)
Low54 °F (Oct 10, 4:00 AM)35% (Oct 18, 12:00 PM)29.68 "Hg (Oct 13, 3:00 AM)
Average67 °F78%29.94 "Hg
* Reported Oct 9 11:00 PM — Oct 24 11:30 PM, Rabat, Weather by CustomWeather, © 2016

Note: Actual official high and low records may vary slightly from our data, if they occured in-between our weather recording intervals... More about our weather records


Rabat Weather History for the Previous 24 Hours

Scroll right to see more
Time TempWeatherWind HumidityBarometerVisibility
11:30 PM
Mon, Oct 24
66 °FClear.2 mph78%29.83 "Hg5 mi
11:00 PM64 °FClear.1 mph83%29.83 "Hg5 mi
10:30 PM66 °FClear.1 mph83%29.83 "Hg5 mi
10:00 PM66 °FClear.No wind83%29.83 "Hg5 mi
9:30 PM66 °FPartly cloudy.1 mph83%29.83 "Hg5 mi
9:00 PM66 °FPartly cloudy.No wind78%29.83 "Hg5 mi
8:30 PM66 °FPartly cloudy.1 mph83%29.80 "Hg5 mi
8:00 PM68 °FPartly cloudy.1 mph73%29.80 "Hg5 mi
7:30 PM70 °FPartly cloudy.2 mph73%29.80 "Hg5 mi
7:00 PM70 °FPartly cloudy.3 mph69%29.77 "Hg5 mi
6:30 PM70 °FPartly cloudy.3 mph69%29.77 "Hg5 mi
6:00 PM72 °FPartly cloudy.5 mph65%29.77 "Hg5 mi
5:30 PM72 °FBroken clouds.7 mph65%29.77 "Hg5 mi
5:00 PM73 °FBroken clouds.7 mph61%29.74 "Hg5 mi
4:30 PM73 °FBroken clouds.6 mph57%29.74 "Hg5 mi
4:00 PM75 °FBroken clouds.9 mph57%29.74 "Hg5 mi
3:30 PM79 °FBroken clouds.5 mph42%29.71 "HgN/A
3:00 PM77 °FBroken clouds.7 mph47%29.71 "HgN/A
2:30 PM77 °FBroken clouds.8 mph51%29.74 "HgN/A
2:00 PM81 °FBroken clouds.7 mph37%29.74 "HgN/A
1:30 PM79 °FBroken clouds.9 mph42%29.74 "HgN/A
1:00 PM77 °FBroken clouds.12 mph47%29.77 "HgN/A
12:30 PM77 °FScattered clouds.8 mph47%29.77 "HgN/A
12:00 PM75 °FScattered clouds.9 mph50%29.77 "HgN/A
11:30 AM75 °FPassing clouds.8 mph50%29.77 "HgN/A
11:00 AM73 °FPassing clouds.9 mph57%29.77 "HgN/A
10:30 AM72 °FPassing clouds.7 mph61%29.80 "HgN/A
10:00 AM70 °FScattered clouds.2 mph69%29.80 "HgN/A
9:30 AM68 °FScattered clouds.2 mph73%29.80 "HgN/A
9:00 AM64 °FScattered clouds.2 mph83%29.80 "HgN/A
8:30 AM63 °FScattered clouds.No wind88%29.80 "HgN/A
8:00 AM61 °FScattered clouds.2 mph88%29.77 "HgN/A
7:30 AM63 °FScattered clouds.3 mph83%29.77 "HgN/A
7:00 AM63 °FPartly sunny.3 mph83%29.77 "HgN/A
6:30 AM66 °FPassing clouds.5 mph73%29.77 "HgN/A
6:00 AM64 °FPassing clouds.3 mph78%29.77 "HgN/A
5:30 AM66 °FPassing clouds.2 mph78%29.77 "HgN/A
5:00 AM66 °FPassing clouds.5 mph78%29.77 "HgN/A
4:30 AM66 °FPassing clouds.6 mph78%29.77 "HgN/A
4:00 AM66 °FPassing clouds.7 mph78%29.77 "HgN/A
3:30 AM66 °FMild.9 mph78%29.77 "HgN/A
3:00 AM66 °FPassing clouds.9 mph78%29.77 "HgN/A
2:30 AM66 °FPassing clouds.9 mph78%29.77 "HgN/A
2:00 AM68 °FPassing clouds.7 mph73%29.77 "HgN/A
1:30 AM68 °FPassing clouds.7 mph73%29.80 "HgN/A
1:00 AM68 °FPassing clouds.6 mph78%29.80 "HgN/A
12:00 AM64 °FPassing clouds.No wind88%29.80 "HgN/A
Weather by CustomWeather, © 2016

See weather overviewHow to use our weather pages